Medford, OR

4:54 AM PDT on March 27, 2017 (GMT -0700)
Rogue Valley International-Medford

Weather History for KMFR - June, 2013

Change the Weather History Date:

Monday, June 24, 2013

  Actual Average Record
Temperature  
Mean Temperature 60 °F 69 °F  
Max Temperature 66 °F 84 °F 109 °F (1925)
Min Temperature 54 °F 54 °F 38 °F (1920)
Degree Days  
Heating Degree Days 5 1  
Month to date heating degree days 34 49  
Since 1 June heating degree days 34 49  
Since 1 July heating degree days 4036 4246  
Cooling Degree Days 0 5  
Month to date cooling degree days 85 73  
Year to date cooling degree days 120 111  
Since 1 June cooling degree days 85 73  
Growing Degree Days 10 (Base 50)    
Moisture  
Dew Point 51 °F    
Average Humidity 71    
Maximum Humidity 83    
Minimum Humidity 58    
Precipitation  
Precipitation 0.06 in 0.02 in 0.31 in (1941)
Month to date precipitation 0.19 0.55  
Year to date precipitation 3.93 9.39  
Snow  
Snow 0.00 in 0.00 in - ()
Month to date snowfall 0.0 0.0  
Since 1 July snowfall 1.7 4.1  
Snow Depth 0.00 in    
Sea Level Pressure  
Sea Level Pressure 29.72 in    
Wind  
Wind Speed 5 mph (NNW)    
Max Wind Speed 9 mph    
Max Gust Speed 12 mph    
Visibility 10 miles    
Events Rain    
T = Trace of Precipitation, MM = Missing Value Source: NWS Daily Summary

Daily Weather History Graph

Daily Weather History Graph

Search for Another Location

Airport or City:

Trip Planner

Search our weather history database for the weather conditions in past years. The results will help you decide how hot, cold, wet, or windy it might be!

Date:

Astronomy

Jun. 24, 2013 Rise Set
Actual Time 5:35 AM PDT 8:52 PM PDT
Civil Twilight 5:00 AM PDT 9:27 PM PDT
Nautical Twilight 4:15 AM PDT 10:12 PM PDT
Astronomical Twilight 3:20 AM PDT 11:06 PM PDT
Moon 9:55 PM PDT (6/24) 7:12 AM PDT (6/24)
Length of Visible Light 16h 26m
Length of Day
15h 16m
Full, 97% of the Moon is Illuminated
Jun 24
Full
Jun 29
Last Quarter
Jul 8
New
Jul 15
First Quarter
Jul 22
Full

Hourly Weather History & Observations

Time (PDT) Temp. Dew Point Humidity Pressure Visibility Wind Dir Wind Speed Gust Speed Precip Events Conditions
12:53 AM 62.1 °F 48.9 °F 62% 29.71 in 10.0 mi NW 3.5 mph - N/A   Clear
1:53 AM 61.0 °F 48.0 °F 62% 29.70 in 10.0 mi NW 5.8 mph - N/A   Clear
2:53 AM 61.0 °F 48.0 °F 62% 29.70 in 10.0 mi NNW 5.8 mph - N/A   Scattered Clouds
3:53 AM 60.1 °F 48.0 °F 64% 29.69 in 10.0 mi NNW 5.8 mph - N/A   Overcast
4:53 AM 57.9 °F 51.1 °F 78% 29.69 in 7.0 mi NW 4.6 mph - 0.01 in Rain Light Rain
5:53 AM 55.9 °F 50.0 °F 80% 29.69 in 10.0 mi NW 6.9 mph - 0.01 in Rain Light Rain
6:53 AM 55.0 °F 50.0 °F 83% 29.70 in 10.0 mi NW 6.9 mph - 0.01 in Rain Light Rain
7:53 AM 54.0 °F 50.0 °F 86% 29.72 in 10.0 mi NW 5.8 mph - 0.01 in   Overcast
8:13 AM 55.4 °F 50.0 °F 82% 29.74 in 10.0 mi NNW 3.5 mph - 0.00 in Rain Light Rain
8:22 AM 55.4 °F 50.0 °F 82% 29.74 in 10.0 mi North 3.5 mph - 0.00 in   Overcast
8:53 AM 55.0 °F 50.0 °F 83% 29.73 in 10.0 mi NNW 5.8 mph - 0.00 in Rain Light Rain
9:20 AM 55.4 °F 50.0 °F 82% 29.75 in 10.0 mi North 4.6 mph - 0.00 in Rain Light Rain
9:53 AM 55.9 °F 48.9 °F 77% 29.74 in 10.0 mi Calm Calm - 0.00 in   Overcast
10:53 AM 57.0 °F 50.0 °F 77% 29.75 in 10.0 mi NNE 5.8 mph - N/A   Overcast
11:53 AM 59.0 °F 48.9 °F 69% 29.75 in 10.0 mi North 5.8 mph - N/A   Overcast
12:53 PM 61.0 °F 48.9 °F 64% 29.73 in 10.0 mi NNE 5.8 mph - N/A   Overcast
1:53 PM 64.0 °F 50.0 °F 60% 29.72 in 10.0 mi Variable 4.6 mph - N/A   Overcast
2:35 PM 64.4 °F 51.8 °F 64% 29.73 in 10.0 mi Calm Calm - 0.00 in Rain Light Rain
2:53 PM 64.0 °F 50.0 °F 60% 29.72 in 10.0 mi Calm Calm - 0.00 in   Overcast
3:53 PM 64.9 °F 51.1 °F 61% 29.71 in 10.0 mi Calm Calm - 0.00 in   Overcast
4:53 PM 64.0 °F 52.0 °F 65% 29.72 in 10.0 mi ENE 3.5 mph - 0.00 in   Overcast
5:53 PM 66.0 °F 52.0 °F 60% 29.71 in 10.0 mi NE 4.6 mph - N/A   Mostly Cloudy
6:53 PM 66.0 °F 53.1 °F 63% 29.72 in 10.0 mi NNE 4.6 mph - N/A   Mostly Cloudy
7:53 PM 64.9 °F 53.1 °F 65% 29.71 in 10.0 mi North 5.8 mph - N/A   Mostly Cloudy
8:53 PM 64.0 °F 54.0 °F 70% 29.71 in 10.0 mi North 6.9 mph - N/A   Mostly Cloudy
9:53 PM 63.0 °F 54.0 °F 72% 29.71 in 10.0 mi NW 3.5 mph - N/A   Overcast
10:53 PM 61.0 °F 55.0 °F 81% 29.73 in 9.0 mi West 4.6 mph - 0.00 in Rain Light Rain
11:53 PM 60.1 °F 57.0 °F 90% 29.73 in 8.0 mi Variable 3.5 mph - 0.01 in Rain Light Rain